Flag for Portugal Weather past 2 weeks in Funchal, Madeira, Portugal

70 °F

Scattered clouds.

Feels Like: 70 °F
Forecast: 72 / 77 °F
Wind: 17 mph from Southwest

Location: Aeroporto Da Madeira

Current Time: Oct 9, 2015 at 11:00:14 AM

Latest Report: Oct 9, 2015 at 10:30 AM

Visibility: 5 mi

Pressure: 29.92 "Hg

Humidity: 94%

Dew point: 68 °F

Location of FunchalLocation

Historic Weather in Funchal — Graph


Funchal temperature yesterday

Maximum temperature yesterday: 73 °F (at 12:30 PM)
Minimum temperature yesterday: 66 °F (at 4:30 AM)
Average temperature yesterday: 70 °F

Past Weeks' High & Low Weather Summary

High82 °F (Oct 5, 3:00 PM)89% (Oct 3, 11:30 AM)30.18 "Hg (Oct 3, 11:30 AM)
Low66 °F (Sep 29, 7:30 AM)51% (Sep 27, 2:00 PM)29.89 "Hg (Oct 3, 6:30 PM)
Average73 °F70%30.06 "Hg
* Reported Sep 24 10:00 AM — Oct 9 10:00 AM, Funchal, Weather by CustomWeather, © 2015

Note: Actual official high and low records may vary slightly from our data, if they occured in-between our weather recording intervals... More about our weather records


Funchal weather history for previous 24 hours

Time TempWeatherWind HumidityBarometerVisibility
10:00 AM
Fri, Oct 9
70 °FPassing clouds.22 mph88%29.92 "HgN/A
9:30 AM70 °FPassing clouds.18 mph88%29.92 "HgN/A
9:00 AM72 °FPassing clouds.20 mph78%29.92 "HgN/A
8:30 AM72 °FPassing clouds.21 mph73%29.92 "HgN/A
8:00 AM72 °FPassing clouds.17 mph73%29.92 "HgN/A
7:30 AM72 °FPassing clouds.22 mph73%29.92 "HgN/A
7:00 AM72 °FPassing clouds.14 mph73%29.92 "HgN/A
6:30 AM70 °FPassing clouds.6 mph64%29.92 "HgN/A
6:00 AM72 °FPassing clouds.9 mph69%29.92 "HgN/A
5:30 AM72 °FPassing clouds.10 mph69%29.92 "HgN/A
5:00 AM72 °FPassing clouds.14 mph69%29.92 "HgN/A
4:30 AM68 °FPassing clouds.12 mph64%29.95 "HgN/A
4:00 AM68 °FPassing clouds.9 mph69%29.95 "HgN/A
3:30 AM68 °FPassing clouds.8 mph64%29.98 "HgN/A
3:00 AM68 °FPassing clouds.5 mph64%29.98 "HgN/A
2:30 AM68 °FPassing clouds.6 mph64%30.01 "HgN/A
2:00 AM68 °FPassing clouds.7 mph69%30.01 "HgN/A
1:30 AM68 °FPassing clouds.7 mph69%30.01 "HgN/A
1:00 AM68 °FPassing clouds.7 mph69%30.04 "HgN/A
12:30 AM68 °FPassing clouds.8 mph69%30.04 "HgN/A
12:00 AM70 °FPassing clouds.7 mph64%30.04 "HgN/A
11:30 PM
Thu, Oct 8
68 °FPassing clouds.7 mph73%30.07 "HgN/A
11:00 PM68 °FPassing clouds.7 mph73%30.07 "HgN/A
10:30 PM70 °FPassing clouds.10 mph73%30.07 "HgN/A
10:00 PM70 °FPassing clouds.12 mph73%30.07 "HgN/A
9:30 PM72 °FPartly sunny.10 mph69%30.07 "HgN/A
9:00 PM72 °FPartly sunny.8 mph69%30.07 "HgN/A
8:30 PM72 °FPartly sunny.5 mph69%30.07 "HgN/A
8:00 PM70 °FPartly sunny.5 mph69%30.04 "HgN/A
7:30 PM72 °FPartly sunny.5 mph65%30.04 "HgN/A
7:00 PM72 °FPartly sunny.3 mph65%30.04 "HgN/A
6:30 PM72 °FScattered clouds.5 mph65%30.04 "HgN/A
6:00 PM72 °FScattered clouds.5 mph65%30.04 "HgN/A
5:30 PM72 °FScattered clouds.5 mph65%30.07 "HgN/A
5:00 PM72 °FScattered clouds.5 mph65%30.07 "HgN/A
4:30 PM72 °FScattered clouds.6 mph65%30.07 "HgN/A
4:00 PM72 °FScattered clouds.6 mph65%30.07 "HgN/A
3:30 PM72 °FScattered clouds.6 mph65%30.09 "HgN/A
3:00 PM73 °FScattered clouds.6 mph61%30.09 "HgN/A
2:30 PM73 °FPassing clouds.6 mph65%30.09 "HgN/A
2:00 PM72 °FPassing clouds.7 mph65%30.12 "HgN/A
1:30 PM72 °FPassing clouds.9 mph69%30.12 "HgN/A
1:00 PM73 °FPassing clouds.8 mph61%30.12 "HgN/A
12:30 PM73 °FScattered clouds.8 mph61%30.12 "HgN/A
12:00 PM72 °FScattered clouds.7 mph65%30.15 "HgN/A
11:30 AM70 °FScattered clouds.7 mph69%30.15 "HgN/A
11:00 AM70 °FScattered clouds.9 mph69%30.15 "HgN/A
Weather by CustomWeather, © 2015

See weather overviewHow to use our weather pages